CW0570 Weather Reports


Display with metric or nautical units.
time (UTC)temp
F
wind
direction
speed
MPH
gust
MPH
rain 1hr
in
rain 24hr
in
rain mn
in
humidity
%
barometer
mb
20260903144531 56 338 0.0 0.0 0.07 0.59 0.08 98 1014.0
20260903143033 56 338 0.0 0.0 0.04 0.56 0.05 98 1014.0
20260903141529 56 338 0.0 0.0 0.02 0.54 0.03 98 1014.0
20260903140032 56 338 0.0 0.0 0.00 0.52 0.01 98 1014.0
20260903134528 56 338 0.0 0.0 0.00 0.52 0.01 98 1013.9
20260903133029 56 338 0.0 0.0 0.00 0.52 0.01 98 1013.9
20260903131527 56 338 0.0 0.0 0.00 0.52 0.01 98 1013.9
20260903130027 56 338 0.0 0.0 0.01 0.52 0.01 98 1013.9
20260903124525 56 338 0.0 0.0 0.01 0.52 0.01 98 1014.0
20260903123032 56 338 0.0 0.0 0.01 0.52 0.01 98 1014.1
20260903121524 56 338 0.0 0.0 0.01 0.52 0.01 98 1014.0
20260903120023 56 338 0.0 0.0 0.00 0.51 0.00 98 1014.3
20260903114521 56 338 0.0 0.0 0.00 0.51 0.00 98 1014.3
20260903113027 56 338 0.0 0.0 0.00 0.51 0.00 98 1014.4
20260903111528 56 338 0.0 1.0 0.00 0.51 0.00 98 1014.5
20260903110018 56 338 0.0 0.0 0.00 0.51 0.00 98 1014.5
20260903104519 56 338 0.0 0.0 0.00 0.51 0.00 98 1014.4
20260903103015 56 338 0.0 0.0 0.00 0.51 0.00 98 1014.5
20260903101517 56 338 0.0 0.0 0.00 0.51 0.00 98 1014.7
20260903100015 56 338 0.0 0.0 0.00 0.51 0.00 98 1014.8
20260903094510 56 338 0.0 0.0 0.00 0.51 0.00 98 1014.9
20260903093012 56 338 0.0 0.0 0.00 0.51 0.00 98 1015.1
20260903091512 56 338 0.0 0.0 0.00 0.51 0.00 98 1015.1
20260903090006 56 338 0.0 0.0 0.00 0.51 0.00 98 1015.2
20260903084506 56 338 0.0 0.0 0.00 0.51 0.00 98 1015.1
20260903083004 56 338 0.0 0.0 0.00 0.51 0.00 98 1015.2
20260903081509 56 338 0.0 0.0 0.00 0.51 0.00 98 1015.2
20260903080005 56 338 0.0 0.0 0.00 0.51 0.00 98 1015.3
20260903074503 56 338 0.0 0.0 0.01 0.51 0.00 98 1015.2
20260903073002 56 338 0.0 0.0 0.01 0.51 0.00 98 1015.2
20260903071604 56 338 0.0 0.0 0.01 0.51 0.00 98 1015.0
20260903070100 56 338 0.0 0.0 0.01 0.51 0.00 98 1015.1
20260903064558 56 338 0.0 0.0 0.00 0.50 0.50 98 1015.2
20260903063119 56 338 0.0 0.0 0.00 0.50 0.50 98 1015.1
20260903061559 56 338 0.0 1.0 0.00 0.50 0.50 98 1015.2
20260903060107 56 338 0.0 0.0 0.00 0.50 0.50 98 1015.2
20260903054556 56 338 0.0 0.0 0.00 0.50 0.50 98 1015.3
20260903053055 57 338 0.0 0.0 0.00 0.50 0.50 98 1015.5
20260903051555 57 338 0.0 0.0 0.01 0.50 0.50 98 1015.5
20260903050156 57 338 0.0 0.0 0.01 0.50 0.50 98 1015.4
20260903044553 56 338 0.0 0.0 0.01 0.50 0.50 98 1015.5
20260903043054 56 338 0.0 0.0 0.02 0.50 0.50 97 1015.4
20260903041554 56 338 0.0 0.0 0.01 0.49 0.49 97 1015.3
20260903040057 56 338 0.0 0.0 0.02 0.49 0.49 97 1015.2
20260903034551 56 338 0.0 0.0 0.03 0.49 0.49 97 1015.1
20260903033051 56 338 0.0 0.0 0.02 0.48 0.48 97 1014.9
20260903031549 56 338 0.0 2.0 0.04 0.48 0.48 97 1014.8
20260903030049 56 338 0.0 2.0 0.05 0.47 0.47 97 1014.7
20260903024547 56 338 0.0 2.0 0.05 0.46 0.46 97 1014.8
20260903023046 56 338 0.0 2.0 0.07 0.46 0.46 97 1014.6
20260903021546 56 338 0.0 2.0 0.07 0.44 0.44 97 1014.5
20260903020049 57 338 0.0 2.0 0.09 0.42 0.42 97 1014.5
20260903014550 57 338 0.0 2.0 0.10 0.41 0.41 97 1014.3
20260903013043 57 338 0.0 2.0 0.10 0.39 0.39 97 1014.2
20260903011556 57 322 0.0 2.0 0.10 0.37 0.37 96 1014.2
20260903010040 57 321 0.0 3.0 0.09 0.33 0.33 96 1014.1
20260903004541 58 348 0.0 3.0 0.09 0.31 0.31 96 1014.0
20260903003041 58 348 0.0 2.0 0.10 0.28 0.28 96 1014.0
20260903001538 58 322 0.0 2.0 0.08 0.27 0.27 96 1014.0
20260903000038 59 278 0.0 2.0 0.05 0.24 0.24 96 1014.0
20260902234541 59 263 0.0 2.0 0.05 0.22 0.22 96 1014.1
20260902233046 59 9 0.0 2.0 0.02 0.19 0.19 96 1014.0
20260902231549 60 92 0.0 3.0 0.02 0.19 0.19 96 1013.9
20260902230035 59 5 0.0 2.0 0.02 0.19 0.19 96 1014.0
20260902224539 59 355 0.0 2.0 0.00 0.17 0.17 96 1014.1
20260902223032 59 155 0.0 2.0 0.02 0.17 0.17 96 1014.3
20260902221527 59 316 0.0 0.0 0.02 0.17 0.17 96 1014.2
20260902220024 59 316 0.0 0.0 0.02 0.17 0.17 96 1014.4
20260902214522 59 317 0.0 0.0 0.02 0.17 0.17 96 1014.6
20260902213020 59 317 0.0 3.0 0.00 0.15 0.15 96 1014.6
20260902211523 59 11 0.0 3.0 0.00 0.15 0.15 97 1014.7
20260902210018 59 21 0.0 2.0 0.01 0.15 0.15 97 1014.9
20260902204517 59 21 0.0 0.0 0.02 0.15 0.15 97 1014.9
20260902203017 59 21 0.0 2.0 0.02 0.15 0.15 97 1014.8
20260902201514 58 15 0.0 2.0 0.03 0.15 0.15 97 1015.0
20260902200014 58 15 0.0 2.0 0.03 0.14 0.14 96 1015.3
20260902194515 58 15 0.0 3.0 0.02 0.13 0.13 96 1015.5
20260902193014 59 322 0.0 2.0 0.02 0.13 0.13 97 1015.6
20260902191512 59 321 0.0 1.0 0.01 0.12 0.12 97 1015.8
20260902190011 58 321 0.0 1.0 0.01 0.11 0.11 97 1015.6
20260902184510 58 321 0.0 2.0 0.02 0.11 0.11 97 1015.5
20260902183014 58 321 0.0 2.0 0.04 0.11 0.11 97 1015.6
20260902181509 58 321 0.0 2.0 0.06 0.11 0.11 97 1015.5
20260902180010 58 321 0.0 2.0 0.04 0.09 0.09 97 1015.5
20260902174507 57 321 0.0 2.0 0.05 0.09 0.09 97 1015.4
20260902173006 57 321 0.0 2.0 0.04 0.07 0.07 97 1015.4
20260902171504 57 321 0.0 2.0 0.03 0.05 0.05 97 1015.2
20260902170002 56 284 0.0 2.0 0.03 0.05 0.05 96 1015.2
20260902164601 56 284 0.0 1.0 0.03 0.04 0.04 96 1015.2
20260902163104 56 284 0.0 0.0 0.02 0.03 0.03 96 1015.1
20260902161600 55 284 0.0 2.0 0.02 0.02 0.02 96 1015.0
20260902160100 55 284 0.0 1.0 0.02 0.02 0.02 96 1015.0
20260902154556 55 284 0.0 0.0 0.01 0.01 0.01 96 1015.0
20260902153053 55 284 0.0 0.0 0.01 0.01 0.01 96 1015.0
20260902151552 55 284 0.0 0.0 0.00 0.00 0.00 96 1015.0
20260902150050 54 284 0.0 0.0 0.00 0.00 0.00 96 1014.9